#datint,netname,site,siteID,timestamp,IntT,BattV,AirT2,AirT,AirT_Avg,AirT_Max,AirT_Min,RH_Avg,RH_Max,RH_Min,EA_Avg,Td_Avg,Td_Max,Td_Min,WindS_Smp,WindS_Avg,WindD_Avg,WindD_SD,WindS_Max,ETo,ETr,SoilT4,SoilT8,SoilVWC8,SolarW_Avg,wetstate_Avg,wetT_Avg,Precip_accum,Precip_WPG,Precip_TB
15min,AgWx,beryljct,423,31DEC2020:00:00:00,9.6,12.68,10.8,9.3,10.2,14.3,7.5,86,91,79,0.205,6.7,11.2,3.7,1.184,0.9,194,26,2.8,-0.00010,-0.00013,28.8,31.5,8,0,0,.,6.17,0.00,0.00
15min,AgWx,beryljct,423,31DEC2020:00:15:00,9.4,12.66,4.1,3.7,7.1,11.4,3.7,87,91,84,0.156,4.1,9.2,0.5,3.683,2.1,141,19,4.2,-0.00006,-0.00007,28.7,31.5,8,0,0,.,6.17,0.00,0.00
15min,AgWx,beryljct,423,31DEC2020:00:30:00,8.7,12.66,4.6,3.7,3.3,4.2,2.7,88,89,87,0.161,0.5,1.3,-0.4,5.305,4.4,151,11,5.7,-0.00003,-0.00003,28.6,31.5,9,0,0,.,6.17,0.00,0.00
15min,AgWx,beryljct,423,31DEC2020:00:45:00,8.2,12.65,7.4,6.6,5.5,6.6,3.5,90,91,89,0.185,3.1,4.3,1.0,8.33,6.9,171,7.2,8.7,-0.00002,-0.00002,28.6,31.6,8,0,0,.,6.17,0.00,0.00
15min,AgWx,beryljct,423,31DEC2020:01:00:00,8.4,12.66,8.9,8.2,7.0,8.2,6.3,89,90,88,0.197,4.4,5.6,3.7,6.248,7.5,178,4.6,8.7,-0.00001,-0.00001,28.5,31.5,8,0,0,.,6.17,0.00,0.00
15min,AgWx,beryljct,423,31DEC2020:01:15:00,9.1,12.65,12.4,11.7,10.0,11.7,8.2,89,90,88,0.227,7.4,8.8,5.6,7.081,6.6,177,5.4,7.6,-0.00002,-0.00002,28.4,31.5,8,0,0,.,6.17,0.00,0.00
15min,AgWx,beryljct,423,31DEC2020:01:30:00,10.3,12.63,14.0,14.0,13.0,14.0,11.6,86,88,84,0.242,9.7,10.3,8.7,5.875,7.2,173,8.7,8.4,-0.00001,-0.00001,28.3,31.5,8,0,0,.,6.17,0.00,0.00
15min,AgWx,beryljct,423,31DEC2020:01:45:00,11.5,12.64,12.9,12.0,12.3,13.9,11.3,84,86,83,0.225,8.3,10.1,7.3,3.749,5.2,177,11,6.6,-0.00002,-0.00002,28.2,31.5,8,0,0,.,6.16,0.00,0.00
15min,AgWx,beryljct,423,31DEC2020:02:00:00,12.6,12.63,14.9,14.4,14.7,16.4,12.0,83,87,79,0.238,10.3,11.5,8.5,4.472,4.1,161,17,5.0,-0.00003,-0.00003,28.1,31.5,8,0,0,.,6.17,0.00,0.00
15min,AgWx,beryljct,423,31DEC2020:02:15:00,13.8,12.61,17.5,17.0,15.8,17.0,14.4,82,84,79,0.263,11.2,12.1,9.8,6.094,5.6,149,7.3,6.6,-0.00001,-0.00001,28.1,31.5,8,0,0,.,6.17,0.00,0.00
15min,AgWx,beryljct,423,31DEC2020:02:30:00,15.0,12.62,17.2,17.3,17.1,18.0,16.6,80,82,78,0.260,12.1,12.8,11.8,4.165,5.7,166,16,7.0,-0.00001,-0.00001,28.0,31.5,8,0,0,.,6.17,0.00,0.00
15min,AgWx,beryljct,423,31DEC2020:02:45:00,15.9,12.62,16.9,16.4,16.2,17.2,15.3,82,85,79,0.254,11.7,12.8,10.6,12.12,8.4,281,40,14.3,0.00001,0.00001,27.9,31.5,8,0,0,.,6.17,0.00,0.00
15min,AgWx,beryljct,423,31DEC2020:03:00:00,16.5,12.61,17.0,16.4,16.1,16.4,15.8,80,81,79,0.257,11.0,11.6,10.5,7.76,10.3,309,6.0,13.0,0.00002,0.00003,27.9,31.4,9,0,0,.,6.17,0.00,0.00
15min,AgWx,beryljct,423,31DEC2020:03:15:00,16.8,12.6,15.3,15.2,15.8,16.6,15.2,81,83,80,0.249,11.1,11.6,10.8,6.708,6.7,337,22,9.7,-0.00000,0.00000,27.9,31.4,8,0,0,.,6.17,0.00,0.00
15min,AgWx,beryljct,423,31DEC2020:03:30:00,16.9,12.61,14.5,14.2,14.9,15.5,14.2,83,84,82,0.240,10.6,11.1,10.0,4.801,5.5,22,19,8.6,-0.00002,-0.00001,27.8,31.4,8,0,0,.,6.17,0.00,0.00
15min,AgWx,beryljct,423,31DEC2020:03:45:00,16.8,12.6,14.2,13.9,14.1,14.2,13.9,84,84,83,0.241,10.0,10.2,9.9,2.609,2.3,41,33,4.9,-0.00007,-0.00008,27.8,31.4,8,0,0,.,6.17,0.00,0.00
15min,AgWx,beryljct,423,31DEC2020:04:00:00,16.5,12.6,13.5,12.8,13.2,13.9,12.7,86,86,84,0.233,9.7,10.2,9.3,5.174,3.8,114,24,6.6,-0.00004,-0.00005,27.7,31.4,8,0,0,.,6.17,0.00,0.00
15min,AgWx,beryljct,423,31DEC2020:04:15:00,16.2,12.59,13.5,13.1,12.9,13.1,12.8,87,88,86,0.241,9.8,10.1,9.4,5.831,7.3,142,16,10.9,-0.00001,-0.00001,27.7,31.4,8,0,0,.,6.17,0.00,0.00
15min,AgWx,beryljct,423,31DEC2020:04:30:00,15.9,12.59,15.1,14.4,13.6,14.4,13.0,87,88,87,0.256,10.5,11.4,10.0,6.357,5.5,157,22,7.3,-0.00003,-0.00003,27.7,31.3,8,0,0,.,6.17,0.00,0.00
15min,AgWx,beryljct,423,31DEC2020:04:45:00,16.0,12.58,16.7,16.0,15.2,16.0,14.4,86,88,83,0.260,11.7,11.9,11.4,3.749,4.2,171,21,6.1,-0.00004,-0.00004,27.7,31.3,8,0,0,.,6.17,0.00,0.00
15min,AgWx,beryljct,423,31DEC2020:05:00:00,16.6,12.59,16.8,16.3,16.2,16.5,16.0,83,84,82,0.264,12.0,12.3,11.7,1.754,3.2,115,25,4.8,-0.00005,-0.00006,27.7,31.3,8,0,0,.,6.17,0.00,0.00
15min,AgWx,beryljct,423,31DEC2020:05:15:00,17.1,12.59,16.4,16.5,16.6,17.0,16.2,84,85,83,0.266,12.6,13.0,12.1,4.516,2.9,71,36,4.6,-0.00006,-0.00007,27.6,31.3,9,0,0,.,6.17,0.00,0.00
15min,AgWx,beryljct,423,31DEC2020:05:30:00,17.5,12.57,16.7,16.5,16.3,16.7,15.9,85,86,83,0.273,12.5,12.9,11.9,6.993,4.3,328,19,7.0,-0.00004,-0.00004,27.6,31.3,8,0,0,.,6.17,0.00,0.00
15min,AgWx,beryljct,423,31DEC2020:05:45:00,17.9,12.57,16.3,15.9,16.2,16.5,15.9,85,86,85,0.264,12.6,13.0,12.1,6.533,7.3,319,8.3,9.1,-0.00001,-0.00001,27.6,31.2,8,0,0,.,6.17,0.00,0.00
15min,AgWx,beryljct,423,31DEC2020:06:00:00,18.1,12.57,16.9,16.4,16.1,16.5,15.8,84,85,83,0.267,12.2,12.5,11.9,6.949,6.8,337,8.7,9.2,-0.00001,-0.00001,27.6,31.2,9,0,0,.,6.17,0.00,0.00
15min,AgWx,beryljct,423,31DEC2020:06:15:00,18.3,12.57,17.9,17.2,16.5,17.2,16.3,84,84,83,0.276,12.4,13.2,12.1,4.362,6.2,312,11,8.3,-0.00002,-0.00001,27.6,31.2,8,0,0,.,6.17,0.00,0.00
15min,AgWx,beryljct,423,31DEC2020:06:30:00,18.6,12.56,18.3,18.1,18.0,18.6,17.3,83,84,82,0.283,13.7,14.1,13.2,3.091,3.9,328,29,5.2,-0.00004,-0.00004,27.6,31.2,8,0,0,.,6.17,0.00,0.00
15min,AgWx,beryljct,423,31DEC2020:06:45:00,19.1,12.57,17.5,17.3,17.7,18.0,17.3,81,83,80,0.269,12.9,13.7,12.4,3.201,2.9,37,17,5.0,-0.00006,-0.00006,27.6,31.2,8,0,0,.,6.17,0.00,0.00
15min,AgWx,beryljct,423,31DEC2020:07:00:00,19.3,12.56,17.8,17.5,17.4,17.6,17.3,83,86,81,0.286,13.1,13.9,12.6,2.674,2.4,69,69,5.3,-0.00007,-0.00008,27.6,31.1,8,0,0,.,6.18,0.00,0.00
15min,AgWx,beryljct,423,31DEC2020:07:15:00,19.5,12.54,18.4,17.8,17.5,17.8,17.3,86,86,85,0.292,14.0,14.5,13.7,7.41,4.3,166,20,8.4,0.00006,0.00011,27.6,31.1,8,0,0,.,6.17,0.00,0.00
15min,AgWx,beryljct,423,31DEC2020:07:30:00,19.7,12.55,18.3,18.1,18.0,18.2,17.8,85,86,84,0.287,14.3,14.6,14.0,3.595,5.7,128,94,11.1,0.00008,0.00015,27.6,31.1,8,0,0,.,6.17,0.00,0.00
15min,AgWx,beryljct,423,31DEC2020:07:45:00,19.7,12.55,18.1,17.6,17.8,18.1,17.5,85,86,84,0.288,14.1,14.3,13.9,1.644,6.1,16,9.9,9.0,0.00009,0.00015,27.6,31.1,8,0,0,.,6.17,0.00,0.00
15min,AgWx,beryljct,423,31DEC2020:08:00:00,19.8,12.54,18.5,18.0,17.8,18.0,17.5,86,86,85,0.291,14.2,14.4,14.1,4.165,1.9,34,7.2,4.4,0.00004,0.00006,27.6,31.1,8,2,0,.,6.17,0.00,0.00
15min,AgWx,beryljct,423,31DEC2020:08:15:00,19.9,12.55,18.5,18.0,18.0,18.1,17.8,85,86,83,0.284,14.1,14.5,13.6,3.639,3.4,7.5,32,5.4,0.00008,0.00013,27.6,31.1,8,9,0,.,6.17,0.00,0.00
15min,AgWx,beryljct,423,31DEC2020:08:30:00,20.0,12.58,19.0,18.4,18.1,18.4,18.0,84,84,83,0.292,14.1,14.5,13.8,2.762,3.4,307,8.8,4.6,0.00012,0.00017,27.6,31.0,8,22,0,.,6.17,0.00,0.00
15min,AgWx,beryljct,423,31DEC2020:08:45:00,20.3,12.61,19.4,18.9,18.6,18.9,18.4,85,86,84,0.303,14.8,15.3,14.5,0.833,2.5,289,15,4.1,0.00016,0.00020,27.6,31.1,8,40,0,.,6.17,0.00,0.00
15min,AgWx,beryljct,423,31DEC2020:09:00:00,20.8,12.64,20.0,19.5,19.3,19.5,18.9,86,87,86,0.315,15.8,16.2,15.3,0.943,1.0,255,12,1.9,0.00018,0.00020,27.6,31.0,8,50,0,.,6.17,0.00,0.00
15min,AgWx,beryljct,423,31DEC2020:09:15:00,21.4,12.7,20.5,20.1,19.8,20.1,19.5,87,88,87,0.329,16.7,17.2,16.2,2.148,2.0,298,8.4,3.2,0.00022,0.00026,27.6,31.0,8,63,0,.,6.17,0.00,0.00
15min,AgWx,beryljct,423,31DEC2020:09:30:00,22.1,12.74,20.9,20.5,20.2,20.5,20.0,89,90,88,0.340,17.4,17.9,17.1,1.995,2.1,311,8.9,3.2,0.00027,0.00031,27.6,31.0,8,81,0,.,6.18,0.00,0.00
15min,AgWx,beryljct,423,31DEC2020:09:45:00,22.8,12.8,21.2,20.8,20.7,20.9,20.4,90,90,90,0.347,18.2,18.4,17.9,3.88,2.7,327,8.8,4.5,0.00032,0.00036,27.6,31.0,8,95,0,.,6.18,0.00,0.00
15min,AgWx,beryljct,423,31DEC2020:10:00:00,23.5,12.76,21.5,21.1,20.9,21.2,20.7,91,92,90,0.356,18.7,19.2,18.3,4.757,3.3,318,5.7,4.8,0.00034,0.00039,27.7,31.0,8,107,0,.,6.18,0.00,0.00
15min,AgWx,beryljct,423,31DEC2020:10:15:00,24.1,12.77,21.8,21.4,21.2,21.5,21.0,92,92,91,0.362,19.2,19.6,18.9,4.801,4.8,323,7.7,7.1,0.00037,0.00042,27.7,31.0,9,125,0,.,6.19,0.00,0.00
15min,AgWx,beryljct,423,31DEC2020:10:30:00,24.7,12.8,22.1,21.8,21.4,21.8,21.3,92,92,92,0.368,19.5,19.8,19.3,3.179,4.5,325,9.3,5.5,0.00041,0.00046,27.7,31.0,8,141,0,.,6.19,0.00,0.00
15min,AgWx,beryljct,423,31DEC2020:10:45:00,25.3,12.84,22.7,22.3,22.0,22.3,21.7,92,92,91,0.372,19.9,20.1,19.7,2.587,4.2,320,11,5.8,0.00047,0.00053,27.8,30.9,8,166,0,.,6.19,0.00,0.00
15min,AgWx,beryljct,423,31DEC2020:11:00:00,25.9,12.91,22.7,22.5,22.4,22.6,22.3,91,91,91,0.376,20.1,20.4,20.0,3.069,3.5,339,17,4.5,0.00056,0.00062,27.8,30.9,9,195,0,.,6.20,0.00,0.00
15min,AgWx,beryljct,423,31DEC2020:11:15:00,26.8,13.05,23.0,22.8,22.6,22.9,22.4,91,91,91,0.381,20.3,20.7,20.2,3.201,2.3,11,16,3.3,0.00066,0.00072,27.8,30.9,9,224,0,.,6.20,0.00,0.00
15min,AgWx,beryljct,423,31DEC2020:11:30:00,27.8,13.21,23.2,23.0,22.8,23.1,22.7,91,91,90,0.383,20.5,20.8,20.3,4.077,3.2,21,14,5.2,0.00070,0.00077,27.9,30.9,8,250,0,.,6.21,0.00,0.00
15min,AgWx,beryljct,423,31DEC2020:11:45:00,28.5,13.34,24.2,23.8,23.3,23.9,23.0,91,91,90,0.395,21.0,21.5,20.6,5.48,4.6,28,16,7.9,0.00072,0.00080,27.9,30.9,8,271,0,.,6.21,0.00,0.00
15min,AgWx,beryljct,423,31DEC2020:12:00:00,29.2,13.53,24.8,24.2,24.0,24.2,23.8,90,91,90,0.398,21.5,21.8,21.2,5.327,5.6,46,11,7.7,0.00074,0.00083,28.0,30.9,8,285,0,.,6.21,0.00,0.00
15min,AgWx,beryljct,423,31DEC2020:12:15:00,29.8,14.03,24.8,24.4,24.3,24.5,24.1,90,91,90,0.403,21.8,22.1,21.6,4.121,4.8,83,12,6.3,0.00083,0.00091,28.0,30.9,8,313,0,.,6.21,0.00,0.00
15min,AgWx,beryljct,423,31DEC2020:12:30:00,30.6,14.76,24.7,24.5,24.4,24.6,24.3,91,91,90,0.402,22.0,22.4,21.9,3.705,3.8,96,12,5.2,0.00093,0.00101,28.1,30.9,9,345,0,.,6.21,0.00,0.01
15min,AgWx,beryljct,423,31DEC2020:12:45:00,31.5,14.74,25.9,25.3,24.8,25.3,24.5,89,90,89,0.413,22.1,22.6,21.8,2.806,2.6,74,17,4.7,0.00111,0.00120,28.1,30.9,8,401,0,.,6.21,0.00,0.00
15min,AgWx,beryljct,423,31DEC2020:13:00:00,32.7,14.65,26.2,25.7,25.5,25.8,25.2,89,89,88,0.420,22.7,23.0,22.4,2.696,3.1,81,15,4.7,0.00104,0.00114,28.2,30.9,8,376,0,.,6.21,0.00,0.00
15min,AgWx,beryljct,423,31DEC2020:13:15:00,33.5,14.68,26.4,26.4,25.9,26.4,25.5,89,89,88,0.430,23.0,23.6,22.6,3.42,2.0,55,20,3.4,0.00089,0.00097,28.3,30.9,8,303,0,.,6.21,0.00,0.00
15min,AgWx,beryljct,423,31DEC2020:13:30:00,34.0,14.65,27.3,26.8,26.6,26.8,26.2,89,89,88,0.439,23.6,24.0,23.3,3.617,4.4,50,14,6.9,0.00079,0.00088,28.4,30.9,8,285,0,.,6.21,0.00,0.00
15min,AgWx,beryljct,423,31DEC2020:13:45:00,34.2,14.65,28.0,27.6,27.2,27.6,26.8,89,90,88,0.453,24.4,24.7,24.0,6.248,4.3,76,23,8.0,0.00084,0.00093,28.4,30.9,9,312,0,.,6.21,0.00,0.00
15min,AgWx,beryljct,423,31DEC2020:14:00:00,34.3,14.64,28.1,27.9,27.8,28.1,27.6,87,89,87,0.449,24.6,25.0,24.3,7.41,6.6,55,11,9.5,0.00083,0.00095,28.5,30.9,8,338,0,.,6.21,0.00,0.00
15min,AgWx,beryljct,423,31DEC2020:14:15:00,34.4,14.69,28.6,28.2,28.1,28.4,27.9,86,88,85,0.446,24.6,25.1,24.3,7.103,6.4,55,12,9.1,0.00077,0.00089,28.6,30.9,9,313,0,.,6.21,0.00,0.00
15min,AgWx,beryljct,423,31DEC2020:14:30:00,34.5,14.64,28.8,28.5,28.5,28.7,28.2,86,88,85,0.456,24.9,25.4,24.4,6.379,6.5,35,12,8.7,0.00066,0.00077,28.7,30.9,8,268,0,.,6.21,0.00,0.00
15min,AgWx,beryljct,423,31DEC2020:14:45:00,34.4,14.31,29.3,29.0,28.8,29.0,28.5,85,87,84,0.456,25.0,25.4,24.7,5.787,6.5,18,12,8.3,0.00058,0.00070,28.8,30.9,9,241,0,.,6.21,0.00,0.00
15min,AgWx,beryljct,423,31DEC2020:15:00:00,34.1,13.71,29.7,29.3,29.2,29.3,29.0,83,85,82,0.450,24.7,25.0,24.5,4.077,6.0,7.2,12,8.8,0.00048,0.00060,28.8,30.9,8,198,0,.,6.21,0.00,0.00
15min,AgWx,beryljct,423,31DEC2020:15:15:00,33.9,13.46,29.8,29.5,29.4,29.6,29.2,83,84,81,0.449,24.8,25.0,24.4,6.927,6.4,353,15,9.1,0.00037,0.00049,28.9,30.9,8,166,0,.,6.21,0.00,0.00
15min,AgWx,beryljct,423,31DEC2020:15:30:00,33.7,13.68,29.5,29.2,29.3,29.5,29.2,82,83,81,0.447,24.5,24.8,24.3,9.34,7.0,356,8.7,9.3,0.00036,0.00049,29.0,30.9,8,168,0,.,6.21,0.00,0.00
15min,AgWx,beryljct,423,31DEC2020:15:45:00,33.4,13.44,29.6,29.2,29.2,29.3,29.1,82,83,82,0.453,24.5,24.7,24.2,9.51,7.5,6.1,8.2,9.8,0.00033,0.00046,29.1,30.9,8,155,0,.,6.21,0.00,0.00
15min,AgWx,beryljct,423,31DEC2020:16:00:00,33.0,13.32,29.4,29.1,29.2,29.4,29.1,82,83,81,0.446,24.4,24.7,24.0,7.037,8.5,7.2,14,11.1,0.00019,0.00033,29.2,31.0,8,101,0,.,6.20,0.00,0.00
15min,AgWx,beryljct,423,31DEC2020:16:15:00,32.6,13.24,29.1,28.8,29.0,29.1,28.8,82,83,81,0.443,24.1,24.4,23.9,5.897,7.0,8.5,10,11.6,0.00009,0.00021,29.2,31.0,8,76,0,.,6.21,0.00,0.00
15min,AgWx,beryljct,423,31DEC2020:16:30:00,32.1,13.16,28.6,28.4,28.7,29.0,28.4,83,84,82,0.437,24.2,24.5,23.8,11.86,9.2,36,8.5,14.5,0.00007,0.00008,29.3,31.0,8,61,0,.,6.21,0.00,0.00
15min,AgWx,beryljct,423,31DEC2020:16:45:00,31.5,13.1,28.0,27.6,27.9,28.4,27.6,84,85,83,0.433,23.7,23.9,23.6,7.892,9.9,39,7.5,12.5,0.00005,0.00006,29.4,31.0,8,41,0,.,6.21,0.00,0.00
15min,AgWx,beryljct,423,31DEC2020:17:00:00,30.9,13.05,27.7,27.4,27.5,27.7,27.4,85,86,85,0.431,23.7,23.9,23.5,10.72,8.9,35,7.7,12.8,0.00003,0.00004,29.4,31.0,9,25,0,.,6.21,0.00,0.00
15min,AgWx,beryljct,423,31DEC2020:17:15:00,30.3,13.01,27.5,27.2,27.3,27.4,27.1,86,87,85,0.433,23.5,23.7,23.4,9.45,9.1,38,8.5,11.7,0.00002,0.00003,29.5,31.0,9,14,0,.,6.21,0.00,0.00
15min,AgWx,beryljct,423,31DEC2020:17:30:00,29.7,12.98,27.3,26.9,27.1,27.2,26.9,86,87,86,0.431,23.6,23.7,23.5,9.67,9.2,46,8.6,12.9,0.00001,0.00002,29.5,31.1,8,4,0,.,6.21,0.00,0.00
15min,AgWx,beryljct,423,31DEC2020:17:45:00,29.3,12.95,27.1,26.7,26.8,26.9,26.7,87,88,87,0.432,23.5,23.6,23.4,10.65,10.8,48,6.1,13.6,0.00001,0.00002,29.6,31.1,9,1,0,.,6.21,0.00,0.00
15min,AgWx,beryljct,423,31DEC2020:18:00:00,28.9,12.94,27.2,26.7,26.7,26.8,26.6,88,89,88,0.435,23.7,23.8,23.5,9.23,9.9,53,7.1,12.2,0.00000,0.00001,29.6,31.1,9,0,0,.,6.21,0.00,0.00
15min,AgWx,beryljct,423,31DEC2020:18:15:00,28.6,12.93,27.2,26.8,26.7,26.8,26.7,89,89,88,0.439,23.9,24.1,23.8,9.95,9.3,63,7.9,13.2,-0.00001,-0.00000,29.6,31.1,9,0,0,.,6.21,0.00,0.00
15min,AgWx,beryljct,423,31DEC2020:18:30:00,28.6,12.92,27.2,26.8,26.7,26.8,26.7,90,90,89,0.442,24.1,24.2,23.9,11.29,11.8,63,6.4,15.2,0.00000,0.00001,29.7,31.1,9,0,0,.,6.21,0.00,0.00
15min,AgWx,beryljct,423,31DEC2020:18:45:00,28.5,12.9,27.3,26.8,26.8,26.9,26.7,90,90,90,0.446,24.3,24.4,24.1,7.717,10.1,63,7.8,13.3,-0.00001,-0.00000,29.7,31.2,9,0,0,.,6.21,0.00,0.00
15min,AgWx,beryljct,423,31DEC2020:19:00:00,28.4,12.9,27.1,26.8,26.8,26.9,26.7,90,91,90,0.446,24.3,24.5,24.3,9.51,8.3,52,7.7,10.7,-0.00002,-0.00001,29.7,31.2,8,0,0,.,6.21,0.00,0.00
15min,AgWx,beryljct,423,31DEC2020:19:15:00,28.3,12.88,26.5,26.2,26.5,26.7,26.2,91,91,90,0.438,24.1,24.3,23.8,10,9.7,61,6.6,12.8,-0.00001,-0.00001,29.8,31.2,9,0,0,.,6.21,0.00,0.00
15min,AgWx,beryljct,423,31DEC2020:19:30:00,27.8,12.88,25.6,25.4,25.8,26.2,25.4,91,92,91,0.427,23.6,24.0,23.2,5.568,7.1,59,6.1,10.2,-0.00003,-0.00003,29.8,31.2,9,0,0,.,6.21,0.00,0.00
15min,AgWx,beryljct,423,31DEC2020:19:45:00,27.2,12.87,25.0,24.8,25.1,25.5,24.8,92,93,92,0.419,23.1,23.5,22.8,5.217,6.4,68,6.3,8.9,-0.00004,-0.00004,29.8,31.3,9,0,0,.,6.21,0.00,0.00
15min,AgWx,beryljct,423,31DEC2020:20:00:00,26.3,12.85,23.8,23.4,24.1,24.8,23.4,93,94,92,0.400,22.3,22.9,21.8,1.491,3.3,39,24,6.4,-0.00008,-0.00009,29.8,31.3,8,0,0,.,6.21,0.00,0.00
15min,AgWx,beryljct,423,31DEC2020:20:15:00,25.2,12.85,23.8,23.2,23.2,23.4,22.7,95,95,93,0.405,21.9,22.2,21.4,0,0.9,319,12,2.2,-0.00013,-0.00019,29.8,31.3,9,0,0,.,6.21,0.00,0.00
15min,AgWx,beryljct,423,31DEC2020:20:30:00,24.0,12.84,22.7,22.3,22.9,23.4,21.9,96,97,96,0.391,21.9,22.4,20.8,0.592,0.7,330,39,2.1,-0.00014,-0.00020,29.9,31.3,9,0,0,.,6.21,0.00,0.00
15min,AgWx,beryljct,423,31DEC2020:20:45:00,23.1,12.82,22.9,21.7,22.1,22.5,20.6,97,97,96,0.387,21.2,21.8,19.6,0.417,1.1,292,8.8,2.8,-0.00013,-0.00017,29.9,31.3,9,0,0,.,6.21,0.00,0.00
15min,AgWx,beryljct,423,31DEC2020:21:00:00,22.1,12.82,20.6,20.4,20.9,21.9,20.4,97,97,96,0.366,20.2,21.2,19.7,0,0.7,66,41,2.6,-0.00013,-0.00019,29.9,31.4,9,0,0,.,6.21,0.00,0.00
15min,AgWx,beryljct,423,31DEC2020:21:15:00,21.5,12.81,21.8,21.4,20.9,21.4,20.3,97,98,97,0.383,20.3,20.8,19.5,0,1.0,308,22,2.6,-0.00012,-0.00017,29.8,31.4,8,0,0,.,6.22,0.00,0.00
15min,AgWx,beryljct,423,31DEC2020:21:30:00,21.2,12.8,21.7,21.0,20.8,21.4,20.5,97,98,97,0.375,20.1,20.8,19.8,1.754,0.1,31,12,1.8,-0.00016,-0.00025,29.8,31.4,8,0,0,.,6.22,0.00,0.00
15min,AgWx,beryljct,423,31DEC2020:21:45:00,21.1,12.79,21.6,21.3,21.3,21.5,21.0,97,97,97,0.379,20.5,20.8,20.3,3.069,1.9,63,18,3.9,-0.00010,-0.00013,29.8,31.4,8,0,0,.,6.21,0.00,0.00
15min,AgWx,beryljct,423,31DEC2020:22:00:00,21.0,12.79,20.9,20.3,20.6,21.2,20.0,96,97,96,0.361,19.7,20.3,19.0,2.718,3.1,25,4.8,4.1,-0.00008,-0.00009,29.8,31.4,8,0,0,.,6.21,0.00,0.00
15min,AgWx,beryljct,423,31DEC2020:22:15:00,20.6,12.78,20.5,20.3,20.2,20.4,20.0,96,97,96,0.361,19.3,19.6,19.0,2.105,2.6,12,15,3.6,-0.00009,-0.00010,29.7,31.4,8,0,0,.,6.21,0.00,0.00
15min,AgWx,beryljct,423,31DEC2020:22:30:00,20.4,12.76,19.7,19.3,20.3,20.8,19.3,96,97,96,0.345,19.4,20.0,18.3,3.223,3.1,330,28,4.1,-0.00008,-0.00009,29.7,31.5,9,0,0,.,6.21,0.00,0.00
15min,AgWx,beryljct,423,31DEC2020:22:45:00,20.1,12.74,16.5,17.0,18.7,19.8,17.0,96,97,95,0.311,17.7,18.9,15.9,3.771,4.0,320,7.4,5.0,-0.00006,-0.00007,29.6,31.5,9,0,0,.,6.21,0.00,0.00
15min,AgWx,beryljct,423,31DEC2020:23:00:00,19.3,12.75,17.0,16.2,16.5,17.0,16.1,96,96,95,0.299,15.5,15.9,14.9,5.327,4.6,321,3.2,5.6,-0.00005,-0.00006,29.6,31.5,8,0,0,.,6.21,0.00,0.00
15min,AgWx,beryljct,423,31DEC2020:23:15:00,18.6,12.74,17.7,17.5,16.5,18.1,15.0,96,97,94,0.319,15.4,17.4,13.6,4.516,5.2,356,18,6.9,-0.00005,-0.00005,29.5,31.5,9,0,0,.,6.22,0.00,0.00
15min,AgWx,beryljct,423,31DEC2020:23:30:00,18.4,12.73,18.1,17.3,17.5,17.8,17.1,95,96,95,0.314,16.4,16.8,16.0,3.858,5.3,42,18,6.6,-0.00005,-0.00005,29.5,31.5,8,0,0,.,6.21,0.00,0.00
15min,AgWx,beryljct,423,31DEC2020:23:45:00,18.2,12.72,17.0,17.6,17.4,17.8,17.1,95,96,95,0.321,16.3,16.8,15.9,0.592,1.5,64,46,4.9,-0.00010,-0.00013,29.4,31.5,9,0,0,.,6.21,0.00,0.00
15min,AgWx,bigpiney,439,31DEC2020:00:00:00,12.6,12.54,12.4,11.5,11.1,12.6,10.3,78,79,75,0.202,5.5,7.1,4.6,3.727,3.6,260,9.8,4.6,0.00003,0.00004,27.6,31.1,10,0,0,0.0,0.01,0.00,0.00
15min,AgWx,bigpiney,439,31DEC2020:00:15:00,12.5,12.53,13.6,13.3,12.9,13.4,11.6,78,79,77,0.213,7.3,7.9,6.3,2.214,3.0,255,8.1,4.4,0.00003,0.00004,27.6,31.2,10,0,0,0.0,0.01,0.00,0.00
15min,AgWx,bigpiney,439,31DEC2020:00:30:00,12.7,12.51,13.0,12.1,12.4,13.4,11.7,77,78,75,0.204,6.5,7.4,5.3,1.425,2.2,311,24,3.9,0.00002,0.00003,27.6,31.0,10,0,0,0.0,0.01,0.00,0.00
15min,AgWx,bigpiney,439,31DEC2020:00:45:00,12.7,12.5,11.2,9.8,12.3,13.5,9.8,76,79,74,0.187,6.2,7.1,4.4,0.767,0.8,265,37,1.9,-0.00000,0.00000,27.5,31.0,10,0,0,0.0,0.01,0.00,0.00
15min,AgWx,bigpiney,439,31DEC2020:01:00:00,12.5,12.49,10.7,10.4,10.0,10.6,9.6,81,82,79,0.196,5.3,5.8,4.5,3.529,2.0,179,18,4.5,0.00001,0.00002,27.5,31.1,10,0,0,0.0,0.01,0.00,0.00
15min,AgWx,bigpiney,439,31DEC2020:01:15:00,12.2,12.48,10.7,10.2,10.3,10.5,9.9,81,82,80,0.197,5.4,5.7,5.1,4.275,3.3,227,19,4.6,0.00002,0.00003,27.5,31.1,10,0,0,0.0,0.01,0.00,0.00
15min,AgWx,bigpiney,439,31DEC2020:01:30:00,12.1,12.46,11.7,11.2,10.8,11.3,10.1,81,81,80,0.204,6.1,6.5,5.5,3.288,3.7,233,10,5.2,0.00003,0.00003,27.5,31.1,10,0,0,0.0,0.01,0.00,0.00
15min,AgWx,bigpiney,439,31DEC2020:01:45:00,12.2,12.45,12.4,11.9,11.4,11.9,11.2,81,82,80,0.211,6.7,7.2,6.3,1.271,1.4,266,15,3.4,0.00001,0.00001,27.5,31.0,10,0,0,0.0,0.01,0.00,0.00
15min,AgWx,bigpiney,439,31DEC2020:02:00:00,12.3,12.45,11.5,11.3,11.6,11.9,11.3,81,81,80,0.207,6.9,7.2,6.6,0,0.8,234,43,1.8,-0.00000,-0.00000,27.5,31.0,10,0,0,0.0,0.01,0.00,0.00
15min,AgWx,bigpiney,439,31DEC2020:02:15:00,12.4,12.44,12.4,11.5,11.2,11.5,11.0,81,81,80,0.208,6.4,6.8,6.1,0.526,0.2,187,2.4,1.4,-0.00002,-0.00002,27.5,31.0,10,0,0,0.0,0.01,0.00,0.00
15min,AgWx,bigpiney,439,31DEC2020:02:30:00,12.4,12.43,11.6,11.3,11.9,12.1,11.3,80,81,79,0.201,6.8,7.0,6.1,1.995,0.4,29,12,2.7,-0.00001,-0.00001,27.5,31.0,10,0,0,0.0,0.01,0.00,0.00
15min,AgWx,bigpiney,439,31DEC2020:02:45:00,12.4,12.43,11.5,11.1,11.1,11.4,10.9,80,81,79,0.203,6.3,6.5,6.0,0.745,0.6,15,34,2.0,-0.00001,-0.00001,27.5,31.1,10,0,0,0.0,0.01,0.00,0.00
15min,AgWx,bigpiney,439,31DEC2020:03:00:00,12.2,12.41,12.4,11.5,10.9,11.5,10.6,82,83,81,0.210,6.5,7.1,6.2,0.855,1.9,234,18,4.0,0.00001,0.00002,27.5,31.0,10,0,0,0.0,0.01,0.00,0.00
15min,AgWx,bigpiney,439,31DEC2020:03:15:00,12.2,12.4,11.4,10.9,11.0,11.7,10.5,82,83,81,0.206,6.6,7.1,6.2,1.798,2.2,249,19,3.2,0.00001,0.00002,27.5,31.0,10,0,0,0.0,0.01,0.00,0.00
15min,AgWx,bigpiney,439,31DEC2020:03:30:00,12.1,12.39,10.8,10.3,10.7,11.0,10.3,83,83,82,0.202,6.4,6.7,6.1,2.28,1.8,223,22,2.8,0.00001,0.00001,27.5,30.9,10,0,0,0.0,0.01,0.00,0.00
15min,AgWx,bigpiney,439,31DEC2020:03:45:00,12.0,12.4,11.0,10.6,10.7,10.9,10.3,83,84,83,0.206,6.5,6.8,6.2,3.617,3.2,199,4.5,3.7,0.00002,0.00003,27.5,31.0,10,0,0,0.0,0.01,0.00,0.00
15min,AgWx,bigpiney,439,31DEC2020:04:00:00,12.0,12.39,11.5,10.9,10.7,11.0,10.5,84,85,84,0.210,7.0,7.2,6.6,2.039,2.8,225,15,3.9,0.00001,0.00002,27.4,30.9,10,0,0,0.0,0.01,0.00,0.00
15min,AgWx,bigpiney,439,31DEC2020:04:15:00,12.1,12.39,12.1,11.4,11.1,11.6,10.9,83,84,83,0.211,7.0,7.5,6.8,1.425,2.3,246,11,3.1,0.00001,0.00002,27.4,31.0,10,0,0,0.0,0.01,0.00,0.00
15min,AgWx,bigpiney,439,31DEC2020:04:30:00,12.2,12.38,12.9,12.3,11.8,12.3,11.4,83,83,82,0.219,7.5,8.0,7.1,1.337,2.3,267,20,3.8,0.00001,0.00002,27.4,30.9,10,0,0,0.0,0.01,0.00,0.00
15min,AgWx,bigpiney,439,31DEC2020:04:45:00,12.4,12.38,12.7,11.8,11.9,12.4,11.5,82,83,81,0.213,7.4,8.0,6.8,2.587,1.9,317,13,2.6,0.00001,0.00002,27.4,31.0,10,0,0,0.0,0.01,0.00,0.00
15min,AgWx,bigpiney,439,31DEC2020:05:00:00,12.6,12.38,13.8,13.2,12.6,13.2,11.9,81,82,80,0.224,7.9,8.5,7.4,0.899,1.9,297,14,2.8,0.00001,0.00002,27.4,31.0,10,0,0,0.0,0.01,0.00,0.00
15min,AgWx,bigpiney,439,31DEC2020:05:15:00,12.8,12.38,12.7,12.3,12.9,13.4,12.3,82,82,81,0.218,8.4,8.8,7.8,1.447,1.5,223,22,3.2,0.00001,0.00001,27.4,31.0,10,0,0,0.0,0.01,0.00,0.00
15min,AgWx,bigpiney,439,31DEC2020:05:30:00,13.0,12.37,12.8,12.4,12.2,12.5,12.1,82,83,82,0.220,7.9,8.2,7.8,2.609,3.1,213,8.1,4.1,0.00002,0.00003,27.5,31.0,10,0,0,0.0,0.01,0.00,0.00
15min,AgWx,bigpiney,439,31DEC2020:05:45:00,13.0,12.38,12.5,12.2,12.3,12.5,12.1,82,83,82,0.217,7.9,8.2,7.6,2.872,3.0,243,6.1,4.6,0.00002,0.00003,27.5,31.0,10,0,0,0.0,0.01,0.00,0.00
15min,AgWx,bigpiney,439,31DEC2020:06:00:00,13.0,12.34,12.4,11.9,12.2,12.4,11.9,82,83,82,0.216,7.8,8.0,7.4,0,1.4,289,62,2.9,0.00001,0.00001,27.5,31.0,10,0,0,0.0,0.01,0.00,0.00
15min,AgWx,bigpiney,439,31DEC2020:06:15:00,12.9,12.36,12.1,11.3,11.7,12.1,11.0,83,84,82,0.213,7.5,8.0,6.6,0,0.4,141,18,2.7,-0.00001,-0.00002,27.5,31.1,10,0,0,0.0,0.01,0.00,0.00
15min,AgWx,bigpiney,439,31DEC2020:06:30:00,12.8,12.36,11.2,10.9,11.5,11.9,10.9,83,84,83,0.209,7.4,7.7,6.9,3.179,2.2,157,30,4.0,0.00001,0.00002,27.5,31.0,10,0,0,0.0,0.01,0.00,0.00
15min,AgWx,bigpiney,439,31DEC2020:06:45:00,12.5,12.36,11.5,10.9,10.6,10.9,10.4,85,86,84,0.214,7.0,7.5,6.7,3.968,3.4,215,3.6,4.3,0.00002,0.00002,27.5,31.0,10,0,0,0.0,0.01,0.00,0.00
15min,AgWx,bigpiney,439,31DEC2020:07:00:00,12.4,12.36,11.8,11.3,11.2,11.4,10.9,85,86,85,0.215,7.6,7.8,7.4,5.13,5.4,214,5.3,6.4,0.00003,0.00003,27.5,30.9,10,0,0,0.0,0.01,0.00,0.00
15min,AgWx,bigpiney,439,31DEC2020:07:15:00,12.4,12.36,11.6,11.1,11.2,11.4,11.1,85,85,84,0.212,7.4,7.7,7.2,5.568,5.2,216,5.6,6.1,0.00003,0.00003,27.4,31.0,10,0,0,0.0,0.01,0.00,0.00
15min,AgWx,bigpiney,439,31DEC2020:07:30:00,12.3,12.35,11.3,10.9,11.1,11.4,10.8,84,84,83,0.208,7.1,7.4,6.6,5.239,5.0,221,9.1,5.7,0.00003,0.00003,27.4,31.0,10,0,0,0.0,0.01,0.00,0.00
15min,AgWx,bigpiney,439,31DEC2020:07:45:00,12.1,12.36,11.0,10.1,10.2,11.2,9.6,84,85,83,0.204,6.2,7.2,5.7,6.072,5.3,218,12,6.3,0.00003,0.00003,27.4,30.9,10,1,0,0.0,0.01,0.00,0.00
15min,AgWx,bigpiney,439,31DEC2020:08:00:00,12.0,13.86,12.1,11.8,11.4,11.8,10.2,83,85,82,0.212,7.2,7.4,6.5,2.477,5.1,243,5.6,7.1,0.00003,0.00004,27.4,30.9,10,8,0,0.0,0.01,0.00,0.00
15min,AgWx,bigpiney,439,31DEC2020:08:15:00,12.0,13.63,13.8,13.1,12.2,13.2,11.5,81,82,79,0.219,7.4,8.2,6.6,3.266,2.5,326,32,3.4,-0.00011,-0.00009,27.4,30.9,10,34,0,0.0,0.01,0.00,0.00
15min,AgWx,bigpiney,439,31DEC2020:08:30:00,12.3,15,10.0,9.8,12.1,13.6,9.8,80,83,79,0.197,7.1,8.3,5.5,2.981,2.9,44,84,5.4,-0.00006,-0.00003,27.4,31.0,10,49,0,0.0,0.01,0.00,0.00